Regional Weather Roundup
Issued by NWS

Home | Current Version | Previous Version | Text Only | Print | Product List | Glossary Off
Versions: 1 2 3 4 5 6 7 8 9 10 11 12 13 14 15 16 17 18 19 20 21 22 23 24 25 26 27 28 29 30 31 32 33 34 35 36 37 38 39 40 41 42 43 44 45 46 47 48 49 50

476
ASUS43 KLSX 212207
RWRMO

WEATHER SUMMARY FOR MISSOURI
NATIONAL WEATHER SERVICE SPRINGFIELD MO
500 PM CDT THU MAY 21 2015

NOTE: "FAIR" INDICATES FEW OR NO CLOUDS BELOW 12,000 FEET WITH NO
       SIGNIFICANT WEATHER AND/OR OBSTRUCTIONS TO VISIBILITY.
       CURRENT SKY AND/OR WEATHER CONDITIONS ARE NOT AVAILABLE FOR
       CHILLICOTHE AND FARMINGTON.

MOZ001>031-035>038-043-044-053-054-212300-
...NORTHERN AND WESTERN MISSOURI...

CITY           SKY/WX    TMP DP  RH WIND       PRES   REMARKS
KANSAS CTY INT MOSUNNY   68  45  43 VRB3      30.22F
KANSAS C DTWN  MOSUNNY   68  44  42 W8        30.21F
LEE`S SUMMIT   SUNNY     67  44  43 W6        30.22F
ST JOSEPH      SUNNY     69  39  33 VRB6      30.20F
CHILLICOTHE      N/A     71  46  40 NW5       30.19F
KIRKSVILLE     MOSUNNY   69  47  45 W10       30.16F

$$
MOZ066>068-077>081-088>096-101>105-212300-
...SOUTHWEST MISSOURI...

CITY           SKY/WX    TMP DP  RH WIND       PRES   REMARKS
SPRINGFIELD    PTSUNNY   64  43  46 N6        30.21F
JOPLIN         MOSUNNY   64  45  49 VRB6      30.23F

$$
MOZ032>034-039>042-045>050-055>058-069>072-212300-
...CENTRAL MISSOURI...

CITY           SKY/WX    TMP DP  RH WIND       PRES   REMARKS
COLUMBIA       SUNNY     66  42  41 W9G16     30.19F
JEFFERSON CITY SUNNY     65  38  36 W9        30.19F
ROLLA          SUNNY     62  41  46 VRB6      30.19F
SEDALIA        SUNNY     67  43  41 VRB6      30.22F
WHITEMAN AFB   SUNNY     66  43  44 W6        30.20F
WARRENSBURG    SUNNY     66  43  42 W5        30.22S
OSAGE BEACH    SUNNY     63  37  39 N5        30.21F

$$
MOZ051-052-059>065-212300-
...EAST CENTRAL MISSOURI...

CITY           SKY/WX    TMP DP  RH WIND       PRES   REMARKS
ST LOUIS INTL  MOSUNNY   65  40  39 NW12      30.19F
SPIRIT OF STL  MOSUNNY   65  42  43 W7        30.18F
ST CHARLES     SUNNY     65  39  38 W8        30.18S

$$
MOZ072>076-082>087-097>100-106>115-212300-
...SOUTH CENTRAL AND SOUTHEAST MISSOURI...

CITY           SKY/WX    TMP DP  RH WIND       PRES   REMARKS
CAPE GIRARDEAU MOSUNNY   59  44  57 N8        30.20F
FARMINGTON     SUNNY     57  39  51 N7        30.24F
POPLAR BLUFF   LGT RAIN  61  45  55 NW12G20   30.20F
WEST PLAINS    SUNNY     62  44  51 N5        30.21F

$$



USA.gov is the U.S. government's official web portal to all federal, state and local government web resources and services.